Sioux City, IA

8:23 PM CST on December 15, 2019 (GMT -0600)
Sioux Gateway

Weather History for KSUX - October, 2019

Change the Weather History Date:

Sunday, October 13, 2019

  Actual Average Record
Temperature  
Mean Temperature 41 °F 52 °F  
Max Temperature 53 °F 65 °F 92 °F (1975)
Min Temperature 29 °F 39 °F 17 °F (1909)
Degree Days  
Heating Degree Days 24 13  
Month to date heating degree days 209 146  
Since 1 July heating degree days 245 293  
Cooling Degree Days 0 0  
Month to date cooling degree days 0 8  
Year to date cooling degree days 910 869  
Moisture  
Dew Point 31 °F    
Average Humidity 67    
Maximum Humidity 88    
Minimum Humidity 46    
Precipitation  
Precipitation 0.00 in 0.07 in 0.94 in (1981)
Month to date precipitation 2.17 1.08  
Year to date precipitation 30.28 24.58  
Snow  
Snow 0.00 in 0.10 in T in (1969)
Month to date snowfall T 0.2  
Since 1 July snowfall T 0.2  
Since 1 September snowfall T 0.2  
Snow Depth 0.00 in    
Sea Level Pressure  
Sea Level Pressure 29.94 in    
Wind  
Wind Speed 8 mph ()    
Max Wind Speed 22 mph    
Max Gust Speed 33 mph    
Visibility 10.0 miles    
Events      
T = Trace of Precipitation, MM = Missing Value Source: Averaged Metar Reports

Daily Weather History Graph

Daily Weather History Graph

Search for Another Location

Airport or City:

Astronomy

Oct. 13, 2019 Rise Set
Actual Time 7:35 AM CDT 6:46 PM CDT
Civil Twilight 7:07 AM CDT 7:15 PM CDT
Nautical Twilight 6:35 AM CDT 7:47 PM CDT
Astronomical Twilight 6:02 AM CDT 8:20 PM CDT
Moon 7:11 PM CDT (10/13) 7:09 AM CDT (10/13)
Length of Visible Light 12h 07m
Length of Day
11h 11m
Full, 100% of the Moon is Illuminated
Oct 13
Full
Oct 13
Full
Oct 21
Last Quarter
Oct 27
New
Nov 4
First Quarter

Hourly Weather History & Observations

Time (CDT) Temp. Windchill Dew Point Humidity Pressure Visibility Wind Dir Wind Speed Gust Speed Precip Events Conditions
12:52 AM 41.0 °F 36.4 °F 30.0 °F 65% 29.86 in 10.0 mi WSW 6.9 mph - N/A   Overcast
1:52 AM 39.9 °F 34.5 °F 30.0 °F 68% 29.86 in 10.0 mi WSW 8.1 mph - N/A   Overcast
3:52 AM 36.0 °F 32.1 °F 30.0 °F 79% 29.88 in 10.0 mi West 4.6 mph - N/A   Mostly Cloudy
4:52 AM 32.0 °F 25.6 °F 28.9 °F 88% 29.88 in 10.0 mi WSW 6.9 mph - N/A   Scattered Clouds
5:52 AM 33.1 °F 26.1 °F 28.9 °F 85% 29.89 in 10.0 mi WSW 8.1 mph - N/A   Overcast
6:52 AM 33.1 °F 26.9 °F 28.0 °F 82% 29.91 in 10.0 mi West 6.9 mph - N/A   Overcast
7:52 AM 34.0 °F 27.2 °F 28.0 °F 79% 29.91 in 10.0 mi West 8.1 mph - N/A   Mostly Cloudy
8:52 AM 37.0 °F 30.4 °F 30.0 °F 76% 29.92 in 10.0 mi WSW 9.2 mph - N/A   Partly Cloudy
9:52 AM 41.0 °F 35.2 °F 30.0 °F 65% 29.93 in 10.0 mi West 9.2 mph - N/A   Clear
10:52 AM 44.1 °F 38.1 °F 30.0 °F 58% 29.94 in 10.0 mi NW 11.5 mph 18.4 mph N/A   Overcast
11:52 AM 46.0 °F 40.2 °F 30.0 °F 54% 29.93 in 10.0 mi WNW 12.7 mph 24.2 mph N/A   Partly Cloudy
12:52 PM 50.0 °F - 32.0 °F 50% 29.94 in 10.0 mi WNW 16.1 mph 28.8 mph N/A   Scattered Clouds
1:52 PM 50.0 °F - 32.0 °F 50% 29.94 in 10.0 mi WNW 17.3 mph 28.8 mph N/A   Mostly Cloudy
2:52 PM 48.9 °F - 33.1 °F 54% 29.93 in 10.0 mi NW 11.5 mph - N/A   Scattered Clouds
3:52 PM 53.1 °F - 34.0 °F 48% 29.93 in 10.0 mi NW 16.1 mph - N/A   Partly Cloudy
4:52 PM 51.1 °F - 33.1 °F 50% 29.94 in 10.0 mi NW 16.1 mph - N/A   Mostly Cloudy
5:52 PM 50.0 °F - 34.0 °F 54% 29.96 in 10.0 mi NNW 11.5 mph - N/A   Clear
6:52 PM 45.0 °F 39.7 °F 33.1 °F 63% 29.98 in 10.0 mi NNW 10.4 mph - N/A   Clear
7:52 PM 41.0 °F 39.0 °F 33.1 °F 73% 30.01 in 10.0 mi North 3.5 mph - N/A   Clear
8:52 PM 42.1 °F 40.2 °F 32.0 °F 67% 30.02 in 10.0 mi NNE 3.5 mph - N/A   Clear
9:52 PM 39.0 °F 36.8 °F 30.9 °F 73% 30.04 in 10.0 mi North 3.5 mph - N/A   Clear
10:52 PM 36.0 °F 32.1 °F 30.0 °F 79% 30.04 in 10.0 mi North 4.6 mph - N/A   Clear
11:52 PM 32.0 °F - 28.9 °F 88% 30.04 in 10.0 mi Calm Calm - N/A   Clear